SINAH 1

Last updated on Mon Sep 07 2026 00:02:44 GMT+0000 (Coordinated Universal Time)

1 28893U 05043D 26249.58153874 .00000154 00000+0 38717-4 0 9995 2 28893 98.2972 24.4336 0014904 26.3194 333.8762 14.64204897112432
UTC large
Height (km)
Speed (km/s)
/
Latitude / Longitude
Inclination (degrees)
Orbital Period (minutes)
Azimuth
Elevation
Range (km)
Doppler Factor

Next 0 passes for location: London (51.5072 / 0.1276)

No passes found over London.
SINAH 1